Wind_Speed
10 8 7 6 4 4 2 2 2 1 2 1 2 0 2 1 1 1 2 1 1 1 1 4 6 6 6 6 8 5 4 1 3 3 2 4 20 27 20 19 24 24 23 21 19 19 19 18 16 16 16 17 16 16 17 17 17 17 18 18 18 19 18 18 18 19 19 19 19 18 17 16 16 16 16 16 16 16 16 16 16 15 14 13 12 11 10 10 10 9 8 8 7 7 7 7 7
9 7 6 6 4 3 0 1 3 1 2 2 2 0 2 2 1 2 3 3 2 4 6 8 9 8 9 9 6 4 5 5 1 4 3 14 25 22 18 21 25 24 23 22 20 20 19 19 17 17 16 16 16 17 18 17 17 18 18 18 18 18 17 17 17 17 18 18 18 18 18 17 16 15 15 16 16 16 16 15 14 14 13 12 11 10 10 10 9 9 7 6 6 6 6 7 7
7 5 5 6 2 2 1 2 2 0 2 0 3 1 0 1 2 4 4 4 7 8 8 8 7 5 5 5 4 3 2 4 4 6 6 17 19 16 21 23 25 24 23 22 20 20 20 19 19 18 17 17 16 17 18 18 18 17 18 18 18 17 17 17 17 17 17 17 18 17 18 18 17 15 14 14 15 15 15 13 13 13 12 11 11 10 10 10 9 8 7 5 6 6 6 6 6
7 4 4 5 2 2 2 2 1 2 2 1 3 2 2 2 5 5 3 7 8 8 6 5 4 2 4 7 4 5 4 3 4 5 7 14 16 21 25 24 25 23 22 21 20 20 20 19 19 19 18 18 17 17 17 17 17 17 17 17 17 17 16 16 16 17 16 17 17 17 17 18 17 15 14 13 14 14 14 13 12 12 11 11 10 10 10 9 9 8 6 5 6 6 6 7 7
5 3 4 4 2 0 1 1 1 2 2 2 1 3 4 6 6 4 6 8 7 7 5 3 3 1 5 6 3 3 5 5 4 6 10 16 22 26 25 25 25 23 22 20 20 20 19 19 19 19 18 18 17 16 17 17 17 17 16 17 17 17 17 16 16 16 16 16 17 16 16 16 16 15 14 13 13 14 13 13 12 12 11 11 10 10 10 9 9 8 7 5 6 6 6 6 7
5 4 3 2 2 1 1 1 1 1 2 3 2 3 5 7 6 8 8 8 8 8 6 5 5 5 4 3 3 4 6 8 7 9 15 21 27 27 24 25 24 23 22 20 21 19 18 18 19 20 19 18 17 16 16 17 17 16 16 16 16 17 17 16 16 15 15 16 16 16 15 15 15 15 14 14 14 13 13 12 12 12 11 11 10 10 9 9 9 8 7 6 6 5 6 6 7
4 3 2 3 2 0 2 1 1 2 2 3 1 3 4 6 7 9 9 8 8 7 7 7 7 8 4 3 5 6 10 9 9 13 19 25 27 26 25 25 24 23 21 21 20 19 18 17 18 19 18 17 17 16 16 17 17 16 15 15 16 16 16 16 16 15 15 16 16 15 15 15 15 15 14 14 14 13 13 12 12 12 11 11 10 10 10 9 8 8 7 6 6 5 6 6 7
1 1 1 2 2 1 3 1 1 0 2 1 1 5 5 6 6 7 8 7 7 6 7 7 7 7 4 5 4 6 14 12 14 21 24 26 26 25 25 26 25 23 22 22 20 19 17 16 18 19 19 17 16 16 16 16 15 16 15 15 16 15 16 15 15 15 15 16 16 15 15 16 15 15 14 14 13 13 12 12 12 11 11 11 10 10 10 9 8 8 7 6 6 5 6 5 7
1 1 1 3 2 2 2 1 2 1 3 3 3 7 6 7 6 6 8 6 8 8 8 7 4 6 5 7 5 5 13 18 22 25 26 26 26 25 26 26 25 24 23 23 21 19 17 16 17 18 18 17 16 15 15 16 15 15 15 15 15 15 16 16 16 15 15 15 16 16 16 16 16 15 14 14 13 12 12 12 12 11 11 10 10 11 10 9 8 8 7 6 5 5 5 5 6
2 1 1 2 2 2 2 1 1 0 2 2 6 8 6 6 5 6 7 8 10 8 8 7 6 8 8 7 5 5 15 24 26 24 25 26 26 26 26 26 26 25 25 23 22 20 18 16 16 17 18 17 16 14 15 16 15 15 14 14 15 15 16 16 16 16 15 15 15 15 16 16 16 16 15 14 13 12 12 12 11 11 10 10 10 10 10 9 8 8 7 6 6 5 4 4 5
2 1 1 2 2 2 1 1 2 2 2 4 7 5 2 4 6 6 7 9 10 10 9 8 8 10 9 6 3 10 22 26 25 24 24 25 26 26 26 26 25 25 26 24 22 20 18 16 16 17 17 16 16 15 15 15 15 15 15 14 14 15 15 15 16 16 15 15 14 14 15 16 16 15 14 13 12 11 12 11 11 10 10 10 10 10 10 9 9 8 8 7 6 5 4 4 4
2 1 2 3 2 2 0 1 2 3 4 4 5 2 2 4 7 9 9 10 11 12 9 6 7 9 8 5 4 14 23 22 24 25 25 24 25 25 25 25 24 25 25 23 21 19 18 17 16 16 16 16 16 16 15 15 15 15 15 15 15 15 14 14 15 15 15 15 15 15 15 15 15 14 14 13 12 12 12 11 11 10 10 10 10 10 10 9 9 9 8 8 7 6 4 4 4
2 1 3 2 1 2 1 1 2 3 3 3 4 1 3 5 8 10 11 12 13 11 9 9 10 8 8 5 6 12 16 20 25 25 24 24 24 24 23 22 23 24 24 23 21 20 18 18 17 15 15 16 15 16 15 15 15 15 15 15 15 15 14 13 14 15 15 15 15 15 15 14 14 13 13 12 12 12 11 11 11 11 10 10 10 10 10 9 9 9 9 8 7 5 4 4 5
2 1 3 2 1 2 1 1 2 2 2 4 3 1 2 3 7 10 11 12 10 9 11 14 12 9 8 7 7 7 12 22 25 24 24 24 24 23 22 21 22 24 24 23 22 21 19 18 17 16 16 16 15 16 16 15 15 16 15 15 15 15 14 13 14 15 15 14 14 15 15 14 13 13 12 12 12 12 12 11 11 11 11 10 10 10 10 10 9 9 9 8 7 5 4 5 6
2 1 3 3 1 2 1 1 1 1 3 4 3 1 3 2 7 8 9 11 7 10 13 14 11 8 9 10 8 8 17 26 25 24 25 25 24 22 22 20 20 24 24 23 23 21 20 19 17 16 17 17 16 16 16 15 16 16 16 15 15 14 14 14 14 15 14 14 14 14 14 13 13 13 12 12 12 12 12 11 11 11 11 10 10 10 10 10 10 10 9 8 6 5 5 5 6
1 2 3 2 1 1 1 1 0 1 3 5 6 3 3 1 6 6 7 9 9 12 11 10 7 6 11 11 11 17 25 28 25 25 25 24 24 22 22 19 19 22 22 23 22 21 20 19 18 17 18 18 17 17 17 15 15 15 15 15 14 14 14 14 14 14 14 14 14 14 13 13 13 12 12 12 12 11 11 11 11 12 11 11 10 10 10 11 10 9 9 8 6 6 6 6 6
2 2 3 3 2 2 2 2 2 1 5 5 8 5 2 0 2 5 6 10 12 12 8 7 5 7 11 11 19 27 29 30 27 27 25 24 23 22 22 20 20 20 20 21 21 21 20 19 19 19 19 18 18 17 17 15 14 14 14 14 14 14 14 14 14 14 13 13 13 14 14 14 13 12 12 11 11 10 10 11 11 11 11 11 11 11 11 11 11 10 9 8 7 7 6 6 6
2 2 3 3 2 2 2 4 3 2 4 5 8 6 1 1 1 5 8 9 10 9 8 9 9 10 13 19 31 32 30 30 29 27 23 22 21 20 20 20 21 20 21 21 21 22 21 20 20 20 20 19 19 18 17 16 15 14 13 13 13 13 13 14 14 14 14 13 13 14 15 15 14 13 12 12 11 10 10 10 10 10 11 12 12 12 12 11 10 10 9 8 7 7 7 7 8
2 2 3 2 3 2 2 3 2 4 4 7 8 6 2 3 3 5 7 9 10 10 10 11 12 13 14 21 30 30 30 30 30 28 21 20 20 18 18 19 20 20 22 23 22 22 22 21 21 21 21 20 19 18 18 16 16 15 14 14 14 14 13 14 14 14 15 14 14 14 15 14 14 13 13 12 12 11 10 10 10 10 11 12 13 12 11 11 10 9 8 8 8 8 8 8 9
1 2 3 1 4 4 3 4 4 6 5 7 6 5 5 2 2 5 9 10 11 11 11 12 13 15 14 14 19 24 27 25 26 25 18 19 20 19 20 20 20 20 22 24 24 24 23 23 22 22 21 20 20 19 18 17 17 16 15 15 14 14 14 14 14 14 15 15 14 14 15 14 14 13 12 11 11 11 10 10 10 10 11 11 12 11 10 10 9 9 8 8 8 9 9 9 10
1 2 3 3 5 4 4 6 5 6 5 5 5 5 6 5 2 6 10 9 7 9 13 15 17 18 16 13 15 19 21 20 21 19 17 18 18 19 20 20 21 22 22 23 24 24 25 24 23 22 22 21 20 20 19 17 17 16 15 14 14 14 14 14 14 15 15 14 14 14 14 14 13 13 11 10 10 11 11 10 10 10 11 11 10 10 10 9 9 9 8 9 9 9 9 9 10
2 1 2 5 4 3 4 5 5 6 5 3 4 4 4 5 3 4 8 7 5 8 13 17 18 19 18 16 16 18 18 19 19 18 18 19 19 19 19 20 20 21 22 23 24 25 25 25 23 23 23 22 21 20 19 18 17 16 15 14 14 14 14 15 15 16 15 14 14 14 14 13 13 12 12 11 10 11 11 11 10 9 10 10 10 9 9 9 9 9 9 9 9 9 8 7 7
3 1 1 3 3 3 4 4 5 6 3 1 2 2 5 4 3 1 5 4 4 11 15 17 17 20 22 19 17 17 16 17 19 20 21 20 19 20 20 20 21 21 23 23 24 25 25 25 24 24 24 23 22 21 20 19 18 17 16 15 14 14 14 15 15 15 15 15 15 14 14 14 13 13 13 11 10 11 11 10 10 9 9 9 9 9 9 9 9 9 10 10 9 8 7 5 5
4 2 3 3 2 2 3 3 4 4 1 2 3 4 4 4 3 2 3 1 8 16 16 17 17 21 24 20 17 17 17 18 21 23 24 23 22 23 23 23 23 23 23 23 24 25 25 25 25 25 24 24 23 22 22 20 19 17 17 16 14 14 14 14 14 14 14 15 14 13 14 13 13 13 12 11 10 11 10 9 9 9 9 9 9 9 9 9 9 10 10 10 9 7 6 5 7
3 2 3 3 2 2 2 3 3 4 3 3 4 4 2 1 2 2 3 1 14 17 15 18 16 18 20 19 19 18 18 19 21 23 24 23 24 24 23 24 24 23 23 24 24 25 25 25 25 25 25 24 24 23 22 21 20 18 18 17 15 14 14 13 13 13 14 14 14 13 13 13 12 12 11 10 10 10 9 9 9 9 9 10 10 9 9 8 9 9 9 9 8 7 7 7 9
4 5 4 4 4 4 4 4 5 4 2 1 2 3 3 3 2 1 5 4 16 17 16 18 16 16 16 16 18 17 17 20 22 23 23 22 23 23 22 24 24 24 25 24 24 25 25 26 26 26 25 24 25 24 22 21 21 20 19 18 16 15 14 13 14 13 13 13 13 13 12 12 12 11 10 9 10 10 9 9 9 10 10 10 10 9 8 8 8 8 8 7 7 7 8 9 10
7 8 6 6 6 5 4 4 4 3 2 3 2 3 5 4 2 2 5 4 15 18 17 17 16 16 15 13 15 16 17 21 24 24 22 20 22 23 23 24 24 24 25 24 25 25 25 27 27 26 25 24 25 24 23 22 22 21 20 18 17 16 14 14 15 14 12 12 12 11 11 12 11 10 9 9 9 10 10 10 10 10 10 10 9 7 7 7 7 7 7 7 7 9 10 11 12
8 9 5 4 3 3 3 3 3 3 2 5 4 1 5 4 2 5 5 1 10 18 17 17 17 15 15 14 13 13 13 19 25 23 21 22 23 24 24 26 25 24 26 26 25 25 26 27 26 26 26 25 25 25 24 23 23 22 20 20 19 17 15 15 16 15 14 12 11 11 11 11 10 8 8 9 9 10 10 11 10 10 10 10 8 7 6 6 8 9 9 9 12 13 14 14 13
7 7 5 3 1 1 4 4 3 4 3 5 6 2 5 3 3 7 4 1 7 16 17 16 16 14 14 13 11 10 11 16 21 21 22 25 26 27 27 28 28 26 27 27 26 26 26 27 26 27 27 26 27 26 25 25 23 22 22 21 20 18 17 17 17 16 15 13 11 10 10 10 8 7 7 8 9 10 11 11 10 10 9 9 9 8 8 9 11 12 11 12 14 15 15 13 12
4 4 3 3 2 3 6 4 3 4 3 5 6 1 4 5 8 8 4 1 6 11 13 14 14 12 12 12 10 9 11 12 16 19 23 27 28 28 28 29 30 28 27 27 27 27 27 26 27 27 28 27 27 27 26 26 24 23 22 22 21 19 18 18 17 16 15 14 13 11 11 10 8 8 10 12 12 13 12 12 11 10 9 10 11 9 8 10 11 12 12 11 11 12 13 13 12
3 2 2 3 2 3 4 4 6 5 3 6 6 1 4 6 8 9 5 1 6 7 6 8 11 11 10 11 10 10 11 12 16 20 25 30 29 29 29 29 29 28 28 29 29 29 28 26 26 28 28 27 27 27 26 25 24 23 23 21 20 19 19 19 17 16 15 15 15 14 12 11 11 12 15 16 16 16 14 13 12 10 10 10 10 8 6 6 7 9 10 9 9 10 11 11 11
1 2 0 2 3 2 2 4 8 7 3 6 6 1 4 5 7 7 4 3 6 6 4 3 6 9 11 10 10 10 10 13 19 21 26 32 31 29 30 30 30 29 30 32 31 30 28 26 27 28 28 27 27 27 25 25 24 23 22 21 21 20 20 19 17 16 15 15 17 17 15 15 13 12 14 15 15 15 13 12 11 9 9 10 11 8 6 5 7 8 7 5 6 8 9 9 10
2 2 3 3 4 2 1 3 8 8 4 5 6 3 2 4 5 5 4 6 7 5 4 3 3 5 10 10 9 9 9 11 13 18 25 30 31 30 31 31 32 32 31 32 31 30 28 26 28 28 28 28 27 26 25 24 23 22 22 21 21 20 20 19 17 15 14 15 18 19 19 18 14 8 10 13 13 12 12 12 11 11 12 11 10 8 6 5 6 7 5 3 4 5 5 7 9
3 1 2 3 4 4 2 2 6 7 5 6 7 4 3 4 5 6 6 7 7 5 3 3 2 2 6 8 8 8 9 9 8 15 23 28 31 30 31 34 34 34 33 32 32 31 29 28 28 28 28 27 27 26 24 24 23 22 21 21 21 20 20 20 18 15 14 15 18 20 20 20 15 10 12 14 14 14 13 12 10 11 11 10 8 7 6 5 6 6 5 3 3 4 3 5 6
5 4 2 3 3 5 6 3 5 9 7 7 7 6 7 5 5 7 6 8 8 7 5 3 3 2 3 5 7 8 10 9 8 16 22 25 29 28 31 36 35 34 33 32 32 31 29 29 28 28 28 28 27 26 25 24 23 22 21 20 20 20 20 20 19 17 17 17 19 20 20 19 16 12 13 14 14 13 13 11 9 10 11 10 9 8 7 6 6 5 4 3 2 3 3 5 4
7 7 5 4 4 4 6 4 5 12 8 7 9 8 8 6 6 7 6 7 8 7 6 4 3 3 3 4 4 7 10 8 9 18 21 21 23 26 31 35 33 33 33 32 32 30 30 29 29 29 29 29 28 27 26 25 24 24 23 21 21 21 20 21 19 19 21 21 19 18 20 21 17 13 13 14 13 12 12 11 10 10 11 10 9 9 8 6 5 4 3 3 2 3 4 4 3
6 5 4 6 6 5 6 4 5 10 7 7 10 9 8 7 8 8 6 6 7 7 7 6 4 3 4 4 5 8 10 8 11 19 23 20 20 27 32 31 31 31 31 33 32 31 32 31 30 30 30 30 29 29 28 27 26 26 24 23 23 22 22 21 18 19 23 21 18 18 21 22 19 15 14 14 13 12 11 11 11 11 11 10 8 9 8 6 5 4 2 1 3 5 3 2 2
8 6 5 5 6 6 6 6 6 9 6 7 8 7 8 8 8 7 6 7 8 9 9 9 8 6 5 5 6 9 7 6 10 15 21 21 21 29 31 28 31 31 31 34 33 32 33 32 32 32 32 31 30 30 29 28 28 26 25 24 23 22 22 20 18 21 22 18 17 18 22 23 20 16 15 14 14 12 11 12 12 12 12 10 8 8 7 5 5 3 2 1 2 4 2 1 1
10 6 4 4 4 2 3 4 6 8 5 4 7 8 8 7 8 8 8 8 7 9 11 10 10 9 7 6 7 8 7 7 10 12 16 20 23 29 28 27 32 34 34 35 32 32 32 31 32 33 33 32 31 31 30 29 27 25 24 22 22 22 20 18 18 21 19 15 16 18 21 23 20 17 15 15 14 13 12 14 14 13 12 10 8 8 8 6 5 2 2 2 1 2 2 2 3
9 7 4 3 4 3 2 3 6 8 5 1 5 6 4 2 4 6 8 7 5 6 9 8 9 10 9 8 7 8 9 9 11 11 12 17 22 25 24 25 30 32 33 33 31 31 32 31 32 32 33 32 32 31 29 28 25 23 22 20 20 20 18 17 18 20 17 16 18 17 18 21 20 17 16 16 14 12 12 13 14 14 12 10 9 10 9 6 4 2 3 2 0 1 2 2 3
7 9 7 4 6 9 5 4 7 5 4 0 4 1 4 2 6 6 6 5 5 5 7 7 7 9 8 8 8 9 10 10 11 11 11 13 17 21 24 26 29 30 31 31 32 32 32 33 33 32 32 32 32 31 30 28 25 24 23 20 19 19 17 16 19 21 19 18 19 19 18 17 18 18 18 17 13 11 12 12 13 14 13 11 10 10 9 6 3 2 3 2 1 1 2 3 2
3 7 9 8 11 11 4 9 9 3 4 5 5 2 5 3 7 8 5 5 7 6 7 9 7 8 8 8 9 9 10 11 11 12 12 11 14 20 23 27 28 28 31 32 33 34 34 34 34 33 32 32 32 31 30 28 26 26 26 22 21 20 18 17 21 24 22 20 19 20 19 17 17 18 20 19 14 12 12 11 12 13 13 12 11 9 8 5 2 2 3 3 2 1 2 2 2
2 5 8 7 9 9 10 12 8 4 4 6 8 6 3 3 6 9 8 8 10 7 8 11 8 8 8 8 9 10 10 11 10 11 12 13 15 18 21 26 29 29 31 33 32 33 34 35 35 34 33 32 32 31 31 29 27 28 28 26 23 23 21 18 21 25 24 22 21 20 20 19 18 18 21 21 17 13 12 11 12 12 12 12 10 8 6 4 3 3 4 4 3 2 1 1 1
3 5 3 2 4 7 13 13 8 5 1 1 6 6 1 3 5 7 9 8 9 8 9 11 10 10 10 9 9 10 11 11 10 11 12 14 16 18 21 26 29 31 32 33 32 32 34 35 35 34 33 33 31 31 31 30 27 27 28 27 24 24 22 18 20 23 23 24 23 21 20 19 19 19 20 21 19 15 13 12 12 12 12 12 10 8 5 4 4 4 4 4 4 3 3 3 2
6 6 5 3 6 6 13 12 6 3 3 1 4 5 2 4 4 3 8 8 8 10 12 12 12 12 11 10 11 11 12 12 11 12 12 14 16 20 24 26 28 32 34 35 35 33 34 35 35 34 33 32 32 30 31 31 28 27 28 27 24 24 23 19 18 19 21 24 24 22 20 20 20 19 19 20 19 17 15 13 12 13 13 12 11 8 6 6 6 5 5 4 5 5 5 5 4
6 4 3 2 2 4 11 10 5 3 2 4 7 7 4 4 3 4 6 6 9 11 11 11 11 11 11 10 10 11 11 11 11 12 12 15 19 22 26 26 28 32 35 37 37 34 34 34 34 34 33 32 32 31 31 31 29 27 28 28 25 25 24 20 18 17 18 23 25 23 22 20 20 21 20 20 19 18 17 15 14 15 15 14 13 10 9 9 9 8 6 6 7 7 7 6 5
3 3 3 2 3 3 5 4 4 4 2 6 7 10 7 3 3 4 5 8 12 10 8 9 10 10 10 10 10 10 10 10 11 11 12 17 21 23 26 26 28 32 34 35 35 33 33 34 35 35 34 33 33 33 32 32 31 29 28 29 28 27 25 23 21 18 18 24 26 25 24 22 22 23 22 21 20 19 19 18 17 16 16 15 14 12 12 12 11 10 8 8 9 9 8 8 7
3 4 4 2 5 3 4 4 3 3 4 7 6 9 9 4 4 6 9 8 8 11 10 10 12 12 11 10 10 10 11 11 11 10 11 14 16 19 23 24 26 31 31 32 33 33 33 33 34 35 34 34 34 34 34 33 33 31 30 30 30 28 27 25 24 21 19 23 27 27 25 24 23 24 24 23 21 20 21 21 19 18 17 17 15 14 14 13 12 11 9 8 9 10 10 9 9
3 3 4 2 3 3 3 3 1 2 5 6 4 6 5 5 5 8 13 9 6 11 12 11 13 13 12 12 11 10 9 11 12 11 11 12 11 15 20 22 25 29 30 31 32 33 33 32 33 35 35 35 34 34 34 34 33 33 31 30 30 29 27 27 27 25 21 21 25 27 27 26 25 25 26 26 24 21 22 23 21 20 19 18 17 16 16 15 13 12 10 9 9 10 10 10 10
3 3 4 4 2 2 1 3 1 1 5 6 3 3 1 4 4 6 13 12 9 11 11 11 13 12 12 12 12 11 10 11 11 11 12 11 11 15 19 21 25 27 30 32 32 33 32 31 32 35 35 35 35 34 34 34 33 33 32 31 30 28 28 27 27 26 24 20 20 25 28 28 27 26 27 27 26 23 22 23 22 21 20 19 18 18 18 17 15 14 13 11 10 10 10 11 12
4 5 5 4 4 4 3 3 2 3 5 4 2 1 2 3 4 4 7 8 7 9 9 9 10 9 9 9 10 11 11 11 11 11 12 11 14 19 20 21 24 27 29 30 30 32 32 31 33 35 34 34 34 34 34 34 34 33 32 31 30 29 28 28 27 26 25 22 18 18 24 29 29 27 27 27 27 26 24 23 23 22 20 19 18 18 20 19 18 17 16 14 12 11 10 12 12
3 3 6 3 5 5 3 3 5 4 1 3 1 1 2 3 3 5 2 4 5 7 7 7 7 6 7 7 9 10 11 11 10 10 10 11 15 20 21 21 24 26 29 30 30 32 32 31 33 35 35 35 35 34 34 34 33 33 32 31 30 30 29 28 28 27 25 23 19 16 18 25 30 29 27 26 27 28 26 24 24 23 21 20 18 18 20 21 20 19 19 18 15 13 11 11 11
2 2 3 5 5 7 3 2 2 2 2 3 1 3 0 1 3 6 3 7 6 6 7 8 7 6 7 8 9 10 10 10 9 9 9 10 13 17 20 22 24 25 28 30 31 33 34 33 33 33 34 35 35 34 34 33 32 32 32 31 30 29 30 30 30 29 27 25 22 18 15 19 28 31 28 26 26 27 27 25 24 23 22 21 20 19 20 21 21 20 21 21 18 16 14 13 12
4 3 5 2 3 4 3 1 2 1 1 4 1 4 3 3 1 3 2 7 7 6 8 8 6 6 7 7 8 9 11 10 10 10 9 9 12 15 19 23 26 28 30 32 34 34 34 35 35 34 33 34 35 35 33 32 31 31 31 31 30 29 29 29 29 30 29 27 24 21 17 16 21 28 29 27 25 26 26 26 25 23 22 22 21 20 19 20 20 21 22 22 20 18 16 16 15
5 5 3 4 2 1 1 2 2 2 3 1 3 2 3 4 4 4 6 8 9 7 7 7 7 7 7 6 6 7 8 8 8 7 6 6 9 14 18 21 24 25 26 26 25 23 26 32 34 34 35 36 35 34 33 31 30 30 30 30 28 27 27 27 27 28 28 28 27 24 21 18 16 21 26 27 26 26 25 25 24 23 22 22 21 20 20 20 20 21 21 22 22 20 18 18 17
2 1 1 2 4 3 2 3 4 3 3 2 2 2 2 4 5 9 11 10 10 9 7 6 7 7 6 6 5 6 7 7 6 6 5 4 6 12 18 18 15 15 14 11 8 5 4 14 22 25 27 30 32 31 31 30 29 28 27 27 26 26 26 25 25 26 26 27 28 25 24 22 17 15 21 25 25 25 24 23 22 22 22 22 22 22 22 21 20 20 20 21 22 21 20 20 19
3 2 4 2 1 1 2 2 3 4 3 3 3 1 4 5 4 10 12 9 9 9 7 6 5 5 6 6 6 5 6 6 5 6 6 4 5 10 15 17 18 20 19 15 12 7 5 11 19 21 19 21 26 29 29 27 27 26 25 25 26 25 25 24 24 24 25 25 26 26 25 25 21 16 17 21 24 24 23 22 23 23 24 24 24 24 24 23 21 20 20 21 22 21 22 22 21
7 6 5 4 3 1 1 3 3 2 3 4 5 2 5 5 3 8 9 8 8 8 8 7 5 6 6 5 6 6 5 5 5 6 7 5 6 11 17 21 22 23 23 23 22 19 18 20 22 20 16 17 20 21 24 25 25 24 24 25 26 25 24 24 24 23 24 24 25 26 25 25 25 21 17 18 21 23 24 24 26 27 27 27 27 26 25 25 24 22 22 22 23 23 24 24 24
Wind_Direction
131 125 117 109 130 141 103 71 76 337 72 338 299 346 277 294 319 305 86 88 88 103 100 93 104 118 125 124 133 115 46 126 176 147 197 172 153 158 156 160 165 161 158 153 152 152 150 152 154 155 150 146 147 148 148 148 150 151 148 146 145 145 145 146 149 149 148 147 145 143 141 140 139 139 139 139 139 138 137 136 139 140 138 135 130 126 122 117 112 108 106 103 101 101 102 106 110
125 125 115 122 148 142 274 29 89 346 50 357 304 199 281 340 329 188 175 175 125 103 92 88 86 90 106 119 126 89 31 1 93 118 102 136 145 156 158 165 165 161 158 153 154 154 153 152 155 157 151 149 151 152 150 149 150 152 151 148 148 148 148 149 151 150 150 149 148 147 147 145 143 143 141 141 141 141 139 138 141 140 138 135 131 129 127 121 117 115 111 106 105 106 108 113 119
125 132 130 136 115 87 93 35 89 71 72 78 285 253 260 349 217 217 212 144 116 115 101 91 81 76 93 88 53 63 65 16 90 103 111 137 144 160 163 166 163 161 157 153 155 156 154 152 154 155 154 155 156 155 152 150 150 151 151 149 150 150 151 154 154 153 152 151 149 150 151 148 145 145 143 142 144 143 141 141 141 140 139 138 135 133 130 125 122 120 116 112 112 111 111 116 123
136 133 148 155 73 30 71 46 115 114 102 196 271 247 185 220 220 229 193 126 114 110 93 89 69 19 84 96 86 82 110 94 102 104 128 151 156 160 162 163 161 159 157 155 157 157 154 153 153 152 156 159 157 156 153 151 151 152 151 149 151 153 155 157 156 154 154 154 151 151 151 149 147 146 145 144 146 144 142 144 144 145 144 142 140 138 135 131 127 126 124 118 118 115 111 115 119
145 131 152 160 97 20 94 79 100 103 177 190 236 235 209 222 208 176 141 124 112 98 93 100 82 50 96 110 135 106 120 124 126 120 129 152 154 154 159 159 158 158 157 158 159 158 155 154 153 150 156 161 157 155 155 152 152 153 152 151 152 153 154 155 155 153 154 153 153 152 151 151 148 148 149 148 148 146 145 147 147 148 148 147 145 143 140 136 133 132 131 127 125 122 118 119 117
138 121 104 88 104 172 89 49 10 330 227 166 205 251 201 197 169 144 132 117 104 97 95 88 102 109 94 68 60 112 136 127 133 134 133 146 150 151 156 156 155 156 157 160 161 160 155 156 154 150 153 157 155 155 156 154 153 154 154 154 152 152 152 153 153 152 152 150 152 153 152 153 152 153 154 153 151 149 149 150 151 152 151 151 148 146 142 139 138 138 139 136 133 133 132 126 119
135 115 57 55 70 114 88 57 325 312 252 163 207 277 196 170 148 142 130 116 100 93 95 98 115 105 81 76 73 116 128 125 134 141 141 144 147 150 154 154 152 154 160 162 161 159 156 158 156 153 152 151 153 154 156 155 154 155 157 157 154 154 153 154 154 153 152 152 153 154 155 157 157 158 158 157 154 151 152 154 154 155 154 154 152 149 145 143 144 145 146 142 144 143 139 132 124
153 114 49 81 52 12 95 58 321 17 278 228 297 282 233 167 155 143 130 126 116 115 117 121 119 92 66 79 82 120 121 128 135 138 141 142 146 149 153 152 151 156 162 162 161 158 156 159 158 157 155 151 152 153 154 154 154 156 159 159 158 158 157 157 155 153 153 155 156 156 158 159 161 162 162 159 156 155 156 158 158 158 159 158 157 154 149 149 151 151 150 151 157 151 147 143 130
110 74 48 79 78 17 79 14 24 68 291 326 304 257 224 169 156 134 135 128 122 133 131 136 119 96 97 88 94 119 117 130 134 136 140 142 148 150 153 154 155 158 162 163 161 158 157 160 158 157 157 154 155 154 153 152 154 157 158 160 160 159 157 159 157 156 156 157 158 158 159 160 164 166 165 161 159 161 161 163 162 163 164 162 160 157 155 155 156 155 156 163 167 161 158 151 135
49 25 99 80 93 38 41 341 358 168 269 296 260 231 188 163 153 136 143 129 126 127 115 109 93 110 123 103 104 124 126 134 136 138 142 145 150 151 153 158 161 161 161 162 161 161 159 160 158 158 156 156 157 155 153 153 155 156 158 159 159 157 156 159 158 158 158 158 159 160 162 164 168 169 167 163 163 166 165 167 167 168 167 165 164 160 159 159 160 161 166 173 173 175 169 159 148
46 315 120 74 64 53 36 310 300 285 288 283 259 237 187 179 147 131 123 112 115 114 114 99 96 117 115 100 99 128 134 139 141 143 144 146 151 153 154 159 164 161 161 162 162 162 158 157 158 159 157 155 157 155 156 157 155 156 158 159 158 157 156 157 158 159 159 160 161 160 164 166 168 169 169 168 168 170 169 170 171 170 168 167 167 164 164 163 165 168 174 179 182 184 179 173 158
84 272 83 79 85 96 168 272 301 296 302 279 236 217 216 180 129 127 119 113 119 122 135 122 126 130 106 99 118 132 138 143 147 147 145 147 150 153 155 159 163 161 160 159 158 156 154 156 157 159 158 155 156 156 159 158 156 157 159 159 158 158 156 158 157 158 159 160 162 161 164 165 167 169 171 171 173 175 173 173 173 171 168 166 168 168 168 168 170 174 180 185 190 191 187 180 156
124 181 89 92 141 120 133 236 302 308 308 263 220 179 143 139 123 135 126 129 140 139 141 133 141 131 108 117 132 140 143 146 148 148 148 148 149 151 154 158 161 159 157 155 152 153 156 156 157 161 160 158 157 157 160 159 158 159 160 161 160 158 157 159 158 158 158 159 160 161 163 165 168 170 170 173 176 177 176 175 174 172 168 166 167 168 170 172 175 180 186 191 196 199 192 175 155
156 186 108 103 62 97 81 345 315 329 289 260 255 356 82 126 143 142 131 142 151 143 137 138 140 118 118 134 139 158 149 147 149 149 151 150 148 148 149 152 157 156 154 155 154 157 158 157 158 159 161 160 159 159 161 161 161 161 162 162 160 158 156 157 157 157 158 158 159 160 162 164 167 170 170 173 175 176 177 177 175 172 169 167 167 169 172 175 180 186 190 194 200 204 190 170 155
171 164 94 102 51 74 61 330 301 327 277 278 297 10 69 113 145 140 144 146 136 136 135 143 145 122 147 161 158 164 147 149 151 148 150 149 147 144 144 147 152 155 155 157 158 159 158 158 159 159 162 160 160 163 162 163 163 162 162 162 160 158 156 155 156 157 159 159 161 161 161 162 166 169 169 171 173 173 174 174 172 171 170 169 169 172 174 180 187 190 190 194 200 196 180 165 156
161 108 73 94 95 104 148 204 274 322 281 292 308 317 56 82 136 141 165 134 126 147 145 155 166 140 158 165 151 147 145 149 149 144 143 144 145 143 143 145 149 154 157 159 159 161 160 160 161 161 162 160 161 163 162 164 164 162 161 161 159 157 156 156 157 158 160 161 162 162 162 163 165 167 168 169 171 171 170 169 171 172 170 169 172 176 180 187 192 190 189 192 193 185 172 161 155
63 76 74 94 128 146 160 176 158 276 282 295 312 317 91 314 92 118 147 126 136 154 146 147 148 129 141 142 139 141 145 148 146 142 140 142 146 145 147 148 149 153 159 162 162 162 163 162 163 161 162 161 161 160 161 162 163 161 159 160 159 158 158 158 157 157 160 160 160 163 165 165 165 166 168 168 169 168 167 167 170 170 169 170 175 181 186 191 192 189 187 186 183 175 165 156 152
74 78 93 114 150 155 179 181 186 275 291 290 304 313 110 205 59 114 130 123 136 137 122 124 112 109 113 125 138 141 143 146 146 143 143 146 149 150 152 153 153 155 160 164 165 165 165 165 165 162 162 162 161 160 161 161 163 162 159 160 160 158 159 160 159 159 162 160 161 166 168 167 165 167 167 166 167 167 167 168 171 170 170 174 178 184 189 191 188 185 185 182 179 169 161 156 153
111 105 92 137 155 145 201 160 216 257 271 278 283 304 317 197 151 118 127 130 136 125 120 124 115 110 106 123 137 141 143 146 149 148 149 152 155 155 154 157 158 157 162 166 168 169 168 167 167 165 163 164 163 162 162 164 164 162 161 162 160 161 163 165 165 166 166 164 165 167 168 168 165 166 166 165 166 167 169 170 171 171 173 177 179 185 190 190 185 184 184 182 177 167 164 159 157
150 106 89 205 152 147 186 162 230 246 260 277 281 317 338 262 135 107 126 132 138 137 138 136 129 129 125 129 135 138 143 147 153 154 155 156 157 158 157 161 162 162 165 168 170 172 171 170 170 169 168 167 165 163 164 165 164 165 166 164 163 166 168 169 170 171 170 168 167 167 168 167 165 165 164 167 169 169 170 170 172 172 174 178 180 185 187 188 189 186 185 183 176 170 168 163 165
100 105 141 182 151 148 185 182 229 255 246 254 295 339 340 321 23 107 127 126 139 149 148 146 144 143 141 141 140 142 145 149 158 160 159 159 159 161 163 165 166 167 167 168 171 174 174 173 172 173 173 172 169 167 166 166 166 167 168 165 165 166 167 167 168 169 169 169 168 169 169 167 166 164 163 174 177 174 173 170 175 176 174 178 180 183 183 186 191 188 185 180 172 171 170 169 174
83 45 137 158 153 153 187 185 223 253 242 254 334 359 321 324 33 100 126 133 161 151 145 146 146 146 146 148 146 148 151 155 165 167 166 166 163 163 166 167 167 167 169 171 174 178 178 176 176 176 176 176 175 172 168 168 169 168 167 166 167 166 166 165 164 166 168 169 169 170 171 169 169 166 169 181 185 181 179 176 178 180 177 177 178 181 185 189 190 185 179 172 170 172 172 173 180
103 116 147 171 185 150 171 180 209 244 269 318 327 326 318 0 61 101 116 133 164 139 140 145 145 146 147 149 150 154 159 163 169 172 172 171 166 166 167 168 169 169 172 176 178 180 180 179 179 178 179 179 178 176 172 171 172 170 165 166 171 170 169 169 169 168 168 170 170 172 173 173 174 175 176 182 186 186 184 181 180 182 182 182 181 182 187 191 186 180 175 174 179 183 186 192 205
98 141 199 184 177 130 172 190 196 222 246 273 297 327 346 37 42 359 40 83 145 136 139 144 145 146 147 153 159 163 165 167 173 176 176 175 172 170 171 171 171 173 175 178 181 181 180 181 182 181 182 182 181 179 176 176 176 173 169 171 174 175 176 176 175 174 172 172 172 173 174 176 178 179 180 179 182 186 186 185 184 186 186 183 181 182 184 185 181 179 180 185 194 205 220 240 253
103 159 208 156 150 183 187 205 216 216 225 261 300 327 329 344 346 355 329 187 139 137 141 143 149 152 154 161 165 167 169 172 177 177 179 178 173 170 171 172 171 175 177 179 181 181 182 184 185 185 186 186 185 183 181 179 179 177 176 176 176 179 183 181 177 177 175 175 175 176 178 181 180 178 181 179 180 183 184 187 186 183 180 177 177 177 177 177 179 181 187 198 213 233 252 263 271
176 169 188 156 169 192 176 193 207 212 249 262 282 312 307 309 348 294 275 175 139 141 145 147 154 160 166 168 168 172 171 175 179 178 181 176 170 169 170 172 174 178 179 179 181 182 186 188 188 189 189 189 187 185 185 182 180 181 181 180 180 181 184 183 180 177 177 178 180 181 182 185 181 180 185 184 179 175 173 179 179 176 174 175 176 172 169 174 180 188 199 214 230 248 261 268 276
167 158 177 177 175 172 171 211 206 188 233 206 203 307 305 326 44 208 257 158 142 147 151 156 158 164 175 175 171 175 175 178 178 175 175 170 170 172 172 174 177 180 179 179 183 184 188 191 192 192 191 189 187 188 188 185 182 183 184 183 185 184 182 186 186 183 182 183 185 186 187 188 187 187 194 193 184 174 172 176 179 184 183 183 185 181 182 194 206 216 228 243 255 264 274 278 281
154 145 156 198 182 149 166 231 225 175 206 198 158 15 317 343 62 211 255 312 154 154 157 164 164 168 176 177 174 177 179 178 174 173 171 169 173 176 175 178 180 181 180 181 185 186 188 192 193 193 192 188 189 191 190 189 186 186 188 187 190 189 185 189 192 193 192 188 189 192 192 193 195 198 206 207 197 187 183 184 188 197 199 198 200 200 212 237 248 253 256 267 274 277 280 285 283
148 135 132 183 104 265 213 206 206 169 185 183 138 55 320 311 239 239 258 294 162 159 164 168 169 173 174 175 174 175 180 173 171 175 173 170 173 176 178 181 180 181 183 183 184 186 189 191 192 192 192 191 191 192 191 192 191 191 190 190 193 193 191 193 195 197 196 190 192 197 197 200 205 214 230 230 218 206 201 201 205 208 209 212 218 226 240 258 269 267 265 275 281 277 277 285 285
141 135 124 141 75 275 224 184 168 161 185 168 133 100 271 256 246 255 274 149 137 151 168 171 170 174 171 170 171 173 179 173 173 177 173 169 172 176 179 180 181 181 182 183 183 187 190 189 191 192 193 194 193 193 193 193 194 194 193 193 195 195 194 195 196 199 197 193 198 202 203 208 218 232 243 243 241 233 218 214 218 222 230 233 238 245 248 257 268 262 263 277 275 266 270 279 281
145 129 75 124 131 270 220 170 161 160 197 153 117 167 238 250 244 249 271 167 129 127 149 170 170 171 166 167 170 171 176 177 178 177 170 169 173 177 178 178 180 180 179 182 185 188 189 187 190 193 194 195 194 194 194 193 194 194 194 196 197 197 197 197 197 198 198 201 208 209 207 210 222 236 242 239 241 239 229 226 233 236 241 237 230 228 230 238 241 237 252 274 262 254 269 281 288
135 133 202 190 184 268 269 198 175 164 192 149 128 185 245 251 235 233 241 115 121 124 108 139 161 165 166 167 167 169 175 177 177 175 167 169 175 176 177 176 177 181 180 181 185 186 187 187 190 193 194 195 195 196 195 193 194 196 197 198 199 199 200 201 199 200 209 213 213 215 210 206 217 233 235 230 231 230 221 222 225 212 205 203 200 205 215 212 208 221 246 284 274 265 281 301 308
282 152 196 208 185 219 274 234 198 172 149 168 177 185 233 246 221 207 180 118 111 128 128 121 116 152 165 165 168 167 172 175 173 174 167 168 176 177 175 175 177 182 182 181 182 183 186 186 189 193 194 195 196 197 196 195 196 198 199 199 199 200 203 204 201 204 219 220 211 211 208 205 209 205 201 208 206 196 188 190 188 181 183 188 194 203 212 212 217 231 245 285 301 298 307 329 324
253 168 201 228 188 179 188 234 212 180 152 188 208 213 238 238 185 177 173 141 130 146 163 166 130 132 157 161 171 165 169 179 170 174 170 168 176 178 174 174 178 182 182 181 181 182 185 186 189 192 193 195 197 198 197 195 195 196 200 201 200 202 204 204 202 204 213 210 202 203 202 201 203 186 177 186 186 182 182 182 181 183 188 195 203 207 209 218 231 239 246 264 301 324 339 356 351
198 184 196 238 191 179 194 214 198 180 175 188 197 228 251 248 180 175 180 153 147 168 184 189 177 173 159 155 175 168 169 181 172 172 169 165 173 174 172 174 177 179 179 181 180 180 184 186 189 191 192 194 196 198 197 195 194 195 199 203 203 205 206 204 203 206 207 204 199 200 200 199 200 190 179 180 183 187 188 188 190 190 194 202 209 211 208 214 223 231 247 261 297 334 0 9 1
196 192 175 173 181 206 207 217 194 172 175 198 191 213 235 230 196 184 184 166 155 169 180 190 200 216 195 156 177 178 171 179 177 168 160 164 174 169 168 173 174 175 177 178 177 178 181 184 188 190 191 193 194 196 197 197 196 196 200 206 209 209 208 205 206 211 210 208 208 207 204 202 202 194 185 183 182 185 187 192 197 194 195 201 207 209 202 202 211 220 241 261 309 354 21 31 30
217 208 199 173 177 232 223 217 201 160 162 221 206 210 222 207 201 194 179 169 165 167 176 188 197 224 211 171 175 183 176 174 171 161 156 168 174 163 165 169 169 172 175 175 175 176 179 182 186 189 190 192 192 194 196 197 197 198 201 207 211 211 208 208 212 211 207 210 219 216 206 204 205 198 191 190 187 188 189 194 202 199 195 196 203 205 198 193 199 217 242 264 345 4 27 60 44
226 218 218 195 187 229 229 201 187 154 161 232 213 210 227 206 195 197 174 171 185 181 178 185 190 203 209 185 178 182 174 159 161 157 160 169 164 158 162 164 167 171 174 177 177 177 179 181 185 187 188 190 192 194 195 197 199 200 201 206 209 209 208 209 210 205 203 213 219 209 202 202 205 202 197 196 195 197 198 199 204 204 199 198 204 203 196 192 190 213 275 293 6 18 49 107 63
223 220 200 210 207 234 267 189 159 155 173 240 208 205 234 211 186 192 184 185 198 194 187 185 185 193 198 189 181 179 169 159 165 161 163 167 158 159 162 162 166 171 175 180 179 179 180 181 184 184 185 189 192 193 195 196 199 200 201 204 205 207 209 209 207 201 202 211 204 195 196 200 203 203 198 196 196 197 201 204 205 203 201 201 209 209 199 196 195 217 298 292 20 60 118 99 77
210 203 185 221 203 164 243 204 155 170 186 190 178 202 260 205 168 200 203 198 202 202 202 196 189 193 195 190 184 179 173 168 169 166 164 163 158 161 164 162 164 168 173 177 178 179 181 182 185 184 185 189 192 193 195 196 198 199 201 203 206 210 214 214 210 201 199 205 200 194 197 200 204 204 196 191 191 193 198 202 202 201 203 204 209 209 200 196 203 258 320 312 260 146 160 117 75
203 193 188 198 190 191 203 154 141 171 228 283 107 106 295 186 170 211 217 212 215 204 206 212 207 203 198 189 188 183 177 173 168 167 167 163 161 162 163 164 165 167 170 173 175 178 182 185 186 186 187 190 192 193 195 196 197 198 200 204 209 214 215 215 211 202 197 200 202 202 202 202 205 203 195 190 185 187 194 197 198 196 196 197 197 195 197 200 209 295 324 311 240 182 142 120 86
218 203 203 189 183 197 163 121 122 117 251 241 137 125 285 225 186 203 196 200 216 204 199 212 214 211 205 192 191 189 180 176 170 168 167 164 167 166 163 165 167 169 172 174 176 179 182 185 186 187 189 191 192 193 193 194 197 198 199 202 204 206 206 207 208 202 195 196 199 202 203 203 204 201 197 194 188 184 192 197 195 192 188 186 184 184 192 202 231 290 284 271 256 198 140 100 69
217 226 219 204 184 177 144 137 140 138 221 223 174 176 270 283 216 207 186 191 210 207 203 212 211 207 207 198 192 188 181 180 174 169 167 168 173 173 169 168 170 173 175 175 176 179 183 185 186 188 189 191 194 193 193 193 197 200 202 204 205 203 202 204 206 202 197 198 200 199 200 201 203 201 198 200 197 189 194 198 195 193 188 183 183 187 195 213 252 265 242 244 248 218 193 172 69
241 243 179 206 227 172 152 155 169 179 177 206 179 165 85 292 242 200 175 185 209 214 213 214 212 207 205 200 195 188 182 181 177 171 172 177 177 177 177 175 174 176 176 176 176 179 184 185 187 189 190 193 195 196 197 197 199 202 203 207 209 207 206 203 201 200 199 199 200 197 199 202 204 205 202 202 202 198 201 205 202 198 191 186 188 193 204 218 233 236 226 234 237 228 219 210 196
237 229 144 186 248 190 159 164 186 175 96 306 211 151 115 273 273 155 160 183 210 218 217 213 210 209 204 198 195 190 184 182 182 178 177 183 180 179 181 179 177 177 176 178 179 180 183 185 187 190 192 194 197 199 201 201 203 205 205 208 211 210 212 208 198 200 200 198 198 198 200 205 206 207 205 202 202 203 207 210 209 202 194 193 195 199 211 216 217 222 226 238 241 233 222 216 210
229 205 156 209 262 162 156 162 167 121 118 233 218 169 171 267 273 141 148 190 214 216 217 214 208 207 203 198 193 189 187 184 185 185 183 187 185 181 181 179 178 178 178 179 181 181 182 183 186 189 193 194 198 201 203 204 206 208 209 211 213 212 213 212 204 203 202 196 196 199 202 207 207 205 204 201 203 207 211 215 213 205 198 198 199 204 215 220 221 227 234 239 236 230 222 222 230
197 79 67 346 356 80 120 141 127 119 215 247 215 179 178 259 273 188 171 205 211 202 205 209 205 204 201 198 192 186 187 187 187 188 189 190 188 184 181 178 177 179 180 180 181 182 182 183 186 190 194 195 197 201 204 205 207 209 211 212 216 215 213 215 211 208 203 196 196 200 205 209 208 204 203 204 206 209 215 217 215 211 205 200 201 207 218 224 226 232 240 237 229 228 229 232 243
146 83 77 356 325 23 38 5 62 133 239 256 217 170 170 211 261 217 210 223 207 191 196 196 194 200 200 196 193 188 186 187 187 186 189 190 188 184 182 178 175 177 180 180 181 185 184 183 186 190 194 196 198 201 203 206 207 210 213 214 217 217 215 216 215 212 207 200 200 202 206 209 208 205 205 207 208 209 216 217 215 217 214 208 208 213 222 227 229 232 233 227 224 228 232 237 244
107 95 88 85 314 11 19 320 6 178 248 250 198 132 155 222 245 212 209 216 199 192 198 192 188 192 196 196 193 189 185 185 188 187 186 188 185 182 182 177 174 177 180 181 182 185 184 184 186 189 193 196 198 200 202 206 208 210 214 215 217 218 216 216 216 215 212 207 206 206 206 207 208 207 206 209 209 207 211 213 214 219 220 219 220 223 229 230 228 228 226 228 231 231 233 238 243
140 155 132 145 159 75 263 270 329 229 264 267 220 136 147 262 273 217 200 201 196 192 195 193 190 187 189 194 191 187 187 184 188 190 186 187 186 184 182 177 177 179 181 181 181 185 185 185 186 190 194 196 198 200 202 205 208 211 214 215 216 217 215 214 215 215 214 211 209 209 210 209 209 209 208 210 210 208 210 213 217 223 225 226 229 231 233 231 229 229 230 236 238 233 237 240 244
185 170 136 140 157 145 193 215 173 224 261 294 280 173 162 208 268 253 198 191 188 184 190 190 191 189 179 183 186 185 189 188 189 191 188 187 186 185 184 179 179 181 181 180 181 183 185 185 186 190 193 194 197 200 202 205 208 212 214 215 215 215 215 215 214 215 216 214 211 211 214 214 212 213 212 212 212 212 214 216 220 225 227 229 234 234 232 231 231 230 230 236 238 237 242 240 242
249 146 116 158 187 160 167 196 184 185 246 310 303 144 196 198 291 329 61 117 141 162 174 176 184 182 156 164 181 185 192 194 190 189 189 190 188 187 186 182 181 182 182 181 181 183 186 187 187 190 193 195 197 200 203 206 209 211 214 216 216 215 215 216 216 217 219 219 216 214 216 217 216 215 215 215 214 215 218 221 222 225 228 232 237 236 231 231 232 230 229 234 237 236 239 238 239
253 126 168 214 179 143 135 258 249 110 125 264 201 113 282 138 354 337 63 115 132 149 158 168 172 159 149 167 181 184 193 194 190 190 188 190 189 186 186 185 182 182 183 183 182 183 186 188 188 189 193 195 197 201 204 207 209 211 215 217 219 219 217 217 218 219 222 224 223 219 218 219 218 217 216 216 216 217 220 223 224 226 230 234 238 237 233 232 233 232 232 234 236 236 238 239 241
135 200 212 184 103 100 103 190 301 29 194 259 155 134 170 153 142 296 170 144 160 166 162 165 163 156 168 184 183 188 196 194 192 193 186 183 185 183 183 186 185 183 184 186 186 185 186 188 190 190 191 194 197 200 204 207 209 211 216 219 221 222 221 220 220 221 224 229 230 225 220 218 217 218 219 218 218 219 221 224 226 229 233 236 237 238 237 235 234 234 234 235 237 238 241 243 245
167 203 183 114 123 301 32 169 212 249 226 276 27 98 184 189 177 188 190 182 180 182 175 167 169 177 188 196 188 189 196 195 191 185 175 174 177 177 178 182 186 183 182 182 183 184 183 186 191 193 194 195 197 199 202 206 211 212 215 219 222 223 223 223 223 224 225 229 232 230 225 222 219 219 219 218 216 218 220 223 226 231 236 239 238 236 236 237 237 236 236 238 237 238 242 245 247
205 234 264 131 152 171 185 179 170 193 215 181 59 53 229 237 200 178 191 195 180 180 184 177 180 181 181 185 180 180 188 191 182 161 152 150 159 171 173 171 162 146 130 112 89 69 137 175 190 200 201 197 194 196 200 204 209 212 214 218 222 224 225 226 226 226 227 228 231 232 230 227 224 220 219 218 216 215 217 220 225 232 238 240 240 239 237 237 238 238 238 239 239 239 242 245 247
160 189 229 205 121 185 228 224 168 154 169 156 119 106 254 255 208 181 189 193 184 179 169 167 177 169 169 172 158 157 173 175 163 144 137 134 133 141 143 132 121 120 122 122 127 142 174 178 188 201 210 208 200 196 197 201 206 209 211 216 220 223 226 228 228 228 228 229 230 231 231 229 228 225 221 220 219 216 219 225 230 235 237 239 241 240 237 236 236 239 240 240 241 241 243 246 248
164 181 198 177 177 189 212 272 262 135 133 155 139 156 255 262 198 179 182 180 182 168 144 145 157 158 167 164 132 128 149 152 144 135 133 138 130 121 119 117 121 133 145 155 163 175 189 187 183 185 199 222 221 203 195 201 205 206 209 214 218 221 225 228 229 230 230 229 229 228 229 228 229 229 226 224 224 223 226 232 236 238 238 239 240 238 236 235 237 239 241 242 242 242 244 245 247
Height
788 789 789 790 789 790 792 793 811 817 817 829 824 824 819 809 809 807 806 802 802 797 790 790 790 793 798 805 809 809 810 812 816 824 827 813 807 812 813 815 816 817 820 821 823 824 825 825 824 824 825 826 828 828 829 830 832 832 832 833 833 834 835 836 836 837 838 839 839 840 841 842 842 843 844 844 845 846 846 847 848 848 848 849 849 850 851 851 851 851 851 851 851 851 851 850 851
788 789 788 790 788 793 798 795 817 826 824 833 825 823 817 807 810 808 806 803 801 795 788 790 792 794 796 798 801 805 810 808 806 809 811 807 809 813 813 815 817 818 820 821 823 824 825 826 826 826 826 828 829 830 830 831 832 833 833 833 834 835 835 837 837 838 838 839 840 841 842 842 843 844 845 846 846 847 847 848 849 849 849 850 850 851 851 851 851 851 852 852 852 852 851 851 851
788 789 788 790 790 792 799 801 820 830 831 836 826 817 812 812 810 805 802 798 795 790 789 791 794 796 798 803 803 809 814 808 804 804 807 809 810 812 815 816 817 819 819 821 823 824 825 826 827 827 828 829 830 831 831 832 833 834 834 834 835 835 836 837 837 838 839 840 840 841 842 843 844 845 846 846 847 848 848 849 849 850 850 851 851 852 852 852 852 852 852 853 852 852 852 851 852
788 788 788 789 793 797 803 811 821 828 833 835 827 814 810 812 806 801 797 793 791 789 792 794 799 797 798 809 807 810 815 809 806 804 807 809 809 811 814 816 818 819 820 822 823 824 825 826 828 829 829 830 831 832 832 833 833 834 834 835 835 836 837 838 838 839 839 840 841 842 843 844 844 846 847 847 848 848 849 850 850 851 851 852 852 852 852 853 853 853 853 853 853 853 852 852 852
788 788 788 787 798 802 806 816 821 826 830 828 824 813 808 808 802 799 794 791 790 791 794 795 804 799 797 805 804 810 813 808 807 804 806 809 810 812 814 816 818 819 821 822 823 824 825 826 828 829 830 830 831 833 833 833 834 834 835 836 836 837 837 838 839 839 840 841 841 842 843 844 845 846 847 848 849 849 850 850 851 852 852 852 853 853 853 853 853 854 854 854 853 853 853 852 853
787 788 788 787 795 798 808 822 824 825 821 817 820 810 802 800 797 796 793 792 790 791 793 796 803 802 804 803 801 807 807 806 807 804 806 808 811 813 815 817 818 820 821 822 823 824 825 827 828 829 830 831 832 833 834 834 834 835 835 836 837 837 838 839 839 840 841 841 842 843 844 845 846 847 848 848 849 850 851 851 852 852 853 853 853 853 854 854 854 854 854 854 854 853 853 853 853
787 790 791 794 798 798 816 827 824 824 814 810 813 806 800 795 793 793 795 797 795 794 794 797 797 802 812 806 805 806 802 805 804 806 807 809 812 813 815 817 819 820 821 822 823 824 826 827 828 830 831 832 832 834 835 834 834 835 836 837 837 838 838 839 840 841 841 842 843 844 845 846 847 848 848 849 850 850 851 852 852 853 853 853 854 854 854 855 855 855 855 854 854 853 853 853 853
786 792 793 801 808 808 819 825 822 823 813 806 806 805 800 793 791 793 797 798 800 799 797 798 794 806 815 806 812 809 802 806 804 808 809 810 813 814 816 817 819 820 822 823 824 825 825 827 828 830 831 832 833 834 835 834 835 835 836 837 838 838 838 839 840 841 842 843 844 845 846 846 848 848 849 850 850 851 852 852 853 853 853 854 854 855 855 855 855 855 855 854 854 853 853 853 854
786 792 796 804 814 817 822 825 822 818 814 808 805 803 797 789 789 792 796 797 798 800 800 798 795 809 816 810 815 809 804 808 807 810 810 813 814 815 817 818 820 820 822 823 824 825 825 827 828 830 831 832 833 834 834 835 835 835 837 837 838 839 839 840 840 841 842 843 844 845 846 847 848 849 849 850 851 852 852 853 853 853 854 854 854 855 855 856 856 855 855 854 854 854 853 853 854
789 793 799 807 815 823 826 827 822 817 813 808 805 798 791 788 789 791 795 797 797 800 800 795 797 808 814 815 816 809 807 808 808 812 812 814 815 816 818 819 820 820 822 823 824 825 826 828 828 830 831 832 833 834 835 835 835 836 837 838 839 839 840 840 840 841 842 843 844 845 846 847 848 849 850 850 851 852 852 853 853 854 854 854 855 855 856 856 856 855 855 854 854 854 853 854 854
796 796 797 810 820 827 829 828 824 818 811 808 805 791 785 786 789 793 794 798 797 800 801 797 805 809 812 816 815 809 808 809 810 812 814 815 816 818 819 820 822 822 823 823 825 826 826 828 828 830 831 832 833 834 835 835 836 837 838 839 839 839 840 841 841 842 842 843 844 845 846 847 848 849 850 850 851 852 852 853 853 854 854 855 855 855 856 856 856 855 855 854 854 854 853 854 854
801 802 800 816 825 827 827 827 823 817 812 810 804 788 783 785 790 796 796 800 799 802 801 798 805 805 814 820 814 810 809 811 812 812 815 816 818 819 820 822 823 823 824 825 826 826 827 828 829 830 831 832 833 835 835 836 837 838 839 839 839 840 840 841 841 842 843 844 844 845 846 847 848 849 850 851 851 852 852 853 853 854 854 855 855 855 856 856 856 855 855 854 854 854 854 854 854
800 803 805 818 820 822 825 825 822 817 814 807 797 785 782 786 791 793 794 798 799 803 800 794 798 801 815 820 812 811 811 812 812 814 816 817 819 820 822 823 824 825 825 826 826 827 828 828 829 830 831 832 833 835 835 836 837 838 839 839 840 840 840 841 841 842 843 844 845 846 847 847 848 849 850 850 851 852 852 853 853 854 854 855 855 855 856 856 856 855 855 854 854 854 854 854 855
796 798 804 817 818 821 826 826 823 821 815 801 790 782 781 785 787 786 790 799 799 797 795 788 791 802 814 817 816 814 810 812 813 815 816 818 820 821 822 823 824 825 826 827 827 828 828 829 830 831 831 832 833 835 836 837 837 838 839 839 840 840 840 841 841 842 843 844 845 846 847 848 849 849 850 850 851 852 852 853 853 854 854 855 855 855 856 856 855 855 854 854 854 854 854 855 855
792 795 801 815 822 824 827 826 824 825 817 798 789 783 783 783 781 785 787 795 797 788 788 790 789 801 811 813 816 811 808 811 812 815 817 819 821 822 823 824 825 826 827 827 827 828 829 830 830 831 832 832 833 834 836 837 838 838 838 839 839 840 841 841 842 842 843 844 845 846 847 847 848 849 850 850 851 852 852 853 853 853 854 855 855 855 855 855 855 855 854 854 854 855 855 855 855
788 793 803 817 826 828 826 824 825 828 815 797 791 784 787 785 778 787 783 782 793 786 787 794 789 794 802 804 806 804 806 810 812 815 817 820 821 823 824 824 826 826 827 828 828 829 829 830 830 832 832 833 834 834 836 837 838 838 838 839 839 840 841 841 842 843 844 844 845 846 847 847 848 849 850 850 851 851 852 852 853 853 854 854 855 855 855 855 855 855 854 854 855 855 855 855 855
787 796 809 819 825 826 824 823 824 823 811 798 793 787 791 789 779 781 776 776 789 789 789 792 788 788 795 798 800 802 807 810 812 815 816 820 821 823 825 825 826 827 828 828 829 830 830 831 831 832 832 833 834 834 836 837 838 838 839 839 840 841 841 842 842 843 844 845 846 846 847 847 848 849 850 850 851 851 851 852 853 853 854 854 855 855 855 855 855 855 855 855 855 855 855 855 856
792 803 814 822 824 822 817 817 815 813 810 802 795 791 791 790 785 780 781 786 789 791 793 792 791 791 794 796 799 803 807 810 812 814 816 819 821 822 824 825 826 827 828 829 829 830 830 831 831 832 833 834 834 835 836 836 838 838 839 840 840 841 841 842 842 843 844 845 846 846 847 847 848 849 849 850 851 851 852 852 853 853 854 854 855 855 855 855 855 855 855 855 855 855 855 855 856
797 805 815 821 817 815 810 809 809 809 808 802 795 792 790 787 784 781 789 797 793 797 800 796 798 798 798 799 801 805 807 810 812 814 816 817 819 821 823 824 826 827 827 828 829 830 831 831 832 832 833 833 834 835 836 836 837 838 839 840 840 841 841 842 842 843 844 845 846 846 847 847 848 849 849 850 851 851 852 852 853 854 854 854 855 855 855 855 855 855 855 855 855 855 855 856 856
795 802 816 818 809 811 809 807 808 805 803 802 797 790 788 785 779 781 792 798 796 800 801 800 804 804 803 802 802 805 807 810 812 814 816 817 819 820 822 823 824 826 827 827 828 830 830 831 832 832 833 833 834 835 835 836 836 837 838 839 840 840 841 842 842 843 843 844 845 846 847 847 848 848 849 850 851 851 852 853 854 854 854 854 855 855 855 855 855 855 855 855 855 855 856 856 856
795 799 812 810 804 809 807 804 804 801 800 800 795 790 790 784 778 783 791 800 803 799 794 795 800 801 802 803 803 805 808 810 813 814 815 817 819 820 821 822 824 825 826 827 828 829 830 830 831 832 833 833 834 834 835 836 836 837 838 839 840 840 841 842 842 843 843 844 845 846 846 847 847 848 849 850 851 851 852 853 853 854 854 854 854 854 854 855 855 855 855 855 855 856 856 856 856
797 801 803 801 802 807 803 800 801 799 798 797 794 794 793 784 783 787 790 800 802 793 789 789 792 795 799 801 803 805 807 810 812 814 815 816 818 820 821 822 824 825 826 827 827 828 829 830 831 831 832 833 834 834 835 836 836 837 837 838 839 840 841 841 842 843 844 844 845 846 846 847 847 848 848 849 850 851 852 852 853 853 853 853 854 854 855 855 855 855 855 856 856 857 857 857 857
801 805 800 799 800 802 801 798 799 798 797 796 794 793 790 788 790 788 787 794 790 783 784 786 788 792 796 799 802 805 807 809 811 812 813 815 816 818 820 821 823 824 825 826 827 828 829 830 830 831 832 832 833 834 835 835 836 837 837 838 839 839 840 841 842 843 844 844 845 846 846 847 847 848 848 849 850 851 851 852 852 853 853 854 854 854 855 855 855 855 856 857 857 857 857 857 857
800 806 800 798 798 798 799 796 797 797 795 794 792 792 792 794 793 788 786 786 782 781 782 784 788 790 795 800 802 804 806 807 809 810 811 812 814 816 818 820 821 823 824 825 826 827 828 829 830 831 831 832 833 833 834 835 836 837 837 838 839 840 840 841 842 843 844 844 845 846 846 847 847 847 848 849 850 850 851 852 852 853 853 854 854 855 855 855 855 856 857 857 857 857 857 857 857
798 802 798 796 798 797 797 796 796 795 794 793 793 794 794 794 792 790 789 784 780 781 782 785 788 791 795 799 801 803 804 806 807 809 810 811 813 815 818 819 821 822 823 824 825 826 827 828 829 830 831 832 832 833 834 835 836 837 838 838 839 840 840 841 842 843 844 844 845 845 846 847 847 847 848 849 850 850 851 852 852 853 853 854 855 855 855 855 856 856 857 857 857 857 857 857 857
795 795 796 796 798 796 796 796 795 796 793 793 796 796 794 790 791 793 788 782 780 780 784 786 788 792 794 796 798 799 802 804 806 807 809 810 812 815 817 818 819 820 822 823 824 825 826 827 829 830 831 832 832 833 834 835 836 837 837 839 840 840 841 842 842 843 844 844 845 845 846 846 847 847 848 849 849 850 851 851 852 853 854 854 855 855 855 856 857 857 857 857 857 857 857 857 856
787 791 793 792 795 793 794 795 794 796 794 794 798 798 794 789 794 799 788 779 779 782 787 787 789 793 793 794 794 796 798 800 802 805 807 809 811 813 815 817 818 819 820 822 823 824 825 827 828 829 831 832 832 833 834 834 835 836 837 838 840 840 841 842 842 843 844 844 845 845 846 846 847 847 848 849 849 850 851 851 852 853 854 855 855 856 856 857 857 857 857 857 857 857 856 856 856
783 789 794 793 793 793 794 795 795 797 796 793 795 798 796 792 796 797 786 779 780 784 789 788 789 791 791 792 792 793 794 796 799 802 805 807 808 811 813 814 815 818 819 820 822 823 825 826 827 828 830 831 832 833 834 834 835 836 837 838 839 840 841 842 842 843 843 844 845 846 846 847 847 848 848 849 849 850 851 851 852 853 854 855 856 856 857 857 857 857 857 857 857 856 855 855 854
785 788 797 800 798 799 795 793 794 795 797 790 792 804 804 799 797 790 783 781 779 784 789 788 789 790 790 790 791 792 792 794 797 799 801 803 805 808 810 811 813 815 817 818 820 822 824 825 826 828 829 830 831 833 833 834 835 836 837 838 839 840 841 841 842 843 843 844 845 846 847 847 847 848 848 849 849 850 851 852 852 853 854 855 855 856 857 857 857 857 857 857 856 855 854 854 854
790 790 796 803 808 806 793 791 793 795 796 786 793 816 814 801 794 785 782 782 781 787 789 788 789 788 789 789 790 792 791 792 794 796 798 800 803 805 807 809 811 813 815 817 819 820 822 824 826 827 828 830 831 832 833 834 835 836 837 838 839 840 840 841 841 842 843 844 845 846 846 847 847 848 848 848 849 850 851 852 852 852 853 854 855 856 856 857 857 856 857 857 856 855 854 854 854
794 796 798 805 815 808 791 790 794 797 796 784 796 820 814 799 792 784 782 782 783 789 790 788 788 788 788 788 790 791 790 791 792 794 796 798 801 803 806 808 810 812 813 815 817 819 821 823 825 826 827 829 830 832 833 834 835 836 837 837 838 840 840 841 842 842 843 844 844 845 846 847 848 847 847 847 848 849 850 851 852 852 853 854 855 856 856 856 856 856 857 856 855 854 854 853 853
795 804 809 809 811 806 795 790 791 797 796 787 799 818 811 798 790 783 781 782 784 789 790 788 787 787 787 788 789 790 789 789 790 792 794 796 799 801 804 806 808 811 811 813 815 817 820 821 823 825 827 828 829 831 832 834 835 835 836 837 838 839 840 841 842 842 843 843 844 845 846 847 848 847 846 846 847 849 850 851 851 852 853 854 855 856 856 856 856 856 856 855 854 853 853 853 853
799 803 810 809 808 809 804 793 787 790 795 794 799 809 807 796 787 782 782 783 785 789 790 789 788 787 786 787 788 789 789 789 789 790 792 794 797 799 802 804 806 809 810 812 813 816 818 820 822 824 826 827 829 830 832 833 834 835 836 837 838 839 840 840 841 842 842 842 843 844 845 847 847 847 846 846 847 849 850 850 851 852 853 853 854 855 855 855 855 856 855 854 854 853 854 854 853
804 803 806 804 804 809 808 799 789 787 794 799 800 803 802 793 786 785 783 782 786 790 790 789 788 787 787 786 787 788 789 789 789 788 790 792 795 797 799 801 804 806 809 811 812 814 816 818 821 822 825 827 828 830 831 832 833 834 835 836 837 838 839 840 841 842 842 842 843 844 845 846 847 847 847 847 847 849 849 850 851 851 852 852 853 854 854 855 855 855 855 854 854 854 854 854 853
801 803 804 803 801 804 806 799 790 788 795 800 804 807 802 793 789 787 784 782 786 789 789 788 787 788 788 786 787 787 788 789 787 786 788 790 793 796 797 799 802 805 807 810 812 813 815 817 819 821 823 825 827 829 830 832 833 834 835 836 837 838 839 840 841 841 842 842 843 844 845 845 846 846 846 847 847 848 848 849 850 851 851 852 853 853 854 854 855 855 854 854 854 854 854 854 853
791 793 797 799 799 801 798 791 784 786 797 801 802 805 801 797 794 789 786 783 785 788 787 788 788 788 787 787 788 787 787 787 785 784 787 789 792 793 795 798 801 803 806 808 811 812 814 816 818 820 821 823 825 827 829 831 832 833 834 835 836 836 837 838 839 840 841 842 842 843 844 844 845 845 846 846 847 847 848 849 850 850 851 852 853 853 854 854 854 854 854 854 854 854 853 853 853
785 790 793 792 794 796 790 787 782 781 797 802 797 800 799 796 794 789 787 786 786 789 789 789 788 789 787 787 788 787 786 784 783 784 786 788 791 792 794 797 800 802 805 807 809 811 813 814 816 818 819 821 823 825 827 828 830 831 832 833 833 834 836 837 838 838 839 840 841 842 842 843 844 844 845 846 846 847 848 849 849 850 851 852 852 853 853 854 854 854 854 853 853 853 853 852 853
783 789 793 793 793 791 783 784 783 781 794 800 795 800 798 793 793 789 788 789 788 787 789 789 788 788 787 786 787 786 784 782 782 784 785 787 790 791 793 796 798 800 802 805 806 808 811 812 814 816 818 819 821 822 824 826 828 829 830 831 832 833 834 835 836 837 838 839 839 840 841 842 843 844 845 845 846 847 847 848 849 850 851 851 852 852 853 853 853 853 853 853 853 852 852 852 852
782 786 793 795 791 788 784 782 784 784 793 797 795 801 798 790 790 789 787 788 786 783 783 785 785 787 787 786 786 785 785 784 784 784 784 786 788 789 792 794 795 797 799 802 804 806 809 811 812 814 816 818 819 821 822 824 825 827 829 830 831 832 833 834 835 836 837 837 837 838 839 841 842 843 844 845 845 846 847 848 849 850 850 851 851 852 852 852 853 853 853 852 852 852 852 852 852
779 784 792 792 784 788 790 786 788 787 789 792 793 798 797 791 791 790 787 785 783 782 781 781 781 783 783 782 783 783 785 785 785 783 783 785 787 788 790 792 794 795 798 800 803 805 807 809 810 812 814 816 818 820 821 822 824 826 828 829 830 831 832 833 834 835 835 836 836 837 839 840 841 843 844 844 845 846 847 847 848 849 850 850 851 851 851 852 852 852 852 852 852 852 852 851 852
776 778 784 784 779 780 782 784 788 790 792 789 793 805 802 793 797 794 787 785 784 783 783 783 781 780 780 780 780 781 781 782 783 783 782 783 785 787 788 790 792 794 796 798 801 803 805 807 809 810 812 814 816 818 820 822 824 825 826 828 829 830 831 832 833 833 834 834 835 836 838 839 840 842 843 844 845 845 846 847 848 848 849 850 850 850 851 851 851 852 852 852 851 851 851 851 851
776 771 768 768 771 773 777 784 791 805 810 792 793 818 814 794 796 795 789 789 787 784 785 785 783 781 780 780 780 779 778 778 779 780 781 782 784 786 787 789 791 792 794 796 798 800 802 805 807 809 811 812 815 817 819 821 822 824 825 826 827 828 829 829 830 831 832 833 834 835 837 838 839 841 842 843 844 845 845 846 847 847 848 849 849 850 850 851 851 851 851 851 851 851 851 851 851
777 764 753 756 763 770 779 785 793 811 811 787 785 811 815 800 796 791 788 792 790 786 786 784 782 781 780 780 779 778 777 776 777 778 778 780 782 784 786 787 788 790 792 794 797 799 801 803 805 807 809 811 813 815 817 819 820 822 823 823 824 825 826 827 828 830 830 831 833 834 835 837 838 839 841 842 843 844 845 845 846 847 847 848 848 849 849 850 850 851 851 851 851 850 850 850 850
773 753 747 755 760 768 778 782 789 795 792 787 786 795 807 806 793 785 786 793 794 789 787 783 780 780 778 777 776 775 776 775 776 777 777 778 779 781 783 785 786 787 790 793 795 797 799 801 803 805 807 809 811 814 815 817 818 820 821 822 823 824 825 826 827 829 829 830 832 833 834 835 837 838 840 841 842 843 844 845 845 846 846 847 848 848 849 849 850 850 850 850 850 850 850 850 850
759 744 747 753 754 763 771 779 787 784 787 800 794 790 808 809 790 783 787 794 797 791 786 782 779 777 776 775 774 773 773 772 773 774 775 775 777 778 780 782 784 786 788 790 792 795 797 799 802 804 806 807 809 811 813 815 816 817 819 820 821 822 823 825 826 827 828 829 830 831 832 834 835 837 839 840 841 842 843 844 845 845 846 846 847 848 848 849 849 850 850 850 850 850 850 850 850
745 740 747 749 751 759 766 778 784 785 795 803 792 789 806 809 793 790 794 795 794 787 781 778 776 775 774 773 773 771 771 771 771 771 771 772 774 776 778 780 782 784 785 788 790 793 795 797 800 802 804 806 807 809 811 813 814 815 817 818 819 820 822 823 825 826 827 827 829 830 831 832 834 836 837 838 840 841 842 843 844 845 845 846 846 847 847 848 848 849 849 849 850 850 850 850 850
738 744 753 755 758 761 768 777 780 794 806 794 782 784 796 806 799 791 789 782 776 776 777 776 774 773 772 771 770 770 770 770 769 770 769 770 772 774 776 778 780 783 785 787 789 791 793 795 798 800 802 804 805 807 809 810 812 813 815 816 817 818 820 821 823 824 825 826 827 828 829 831 832 834 836 837 838 839 841 842 843 844 845 845 846 846 846 847 848 848 849 849 849 849 849 849 850
739 751 760 768 773 770 776 782 782 801 808 784 773 776 788 805 797 782 776 765 761 768 771 771 771 771 769 768 767 766 767 767 767 769 769 769 771 772 774 776 778 781 783 785 788 790 792 794 796 798 800 802 804 805 807 808 810 812 813 815 816 817 818 820 821 822 824 825 826 827 828 830 831 833 834 835 837 838 839 841 842 843 844 844 845 845 846 846 847 847 847 848 848 848 848 849 849
746 756 766 782 793 792 798 799 794 801 796 775 768 774 787 796 779 766 767 761 758 759 759 762 764 765 765 764 764 763 763 765 765 766 767 767 768 770 772 774 776 779 780 783 786 787 790 792 794 796 798 800 802 804 805 807 808 810 811 813 815 816 817 818 820 821 822 824 825 826 827 828 830 831 832 834 835 836 837 839 840 841 842 843 844 844 845 846 846 846 847 847 847 847 848 848 848
754 760 769 786 800 811 819 813 806 802 787 772 768 774 789 789 768 758 759 755 752 752 752 755 755 758 760 759 759 760 761 762 762 762 763 764 766 767 769 772 774 776 778 781 783 785 788 790 793 795 796 798 800 802 804 806 807 809 810 812 813 815 816 817 819 820 821 823 824 825 826 827 828 829 830 832 833 835 836 837 838 840 841 842 842 843 844 845 845 845 846 846 846 847 847 847 847
753 751 759 776 785 800 812 809 806 799 786 778 774 779 791 789 770 755 750 748 748 749 749 750 751 753 755 756 757 759 759 759 759 759 761 761 763 764 767 769 771 773 776 779 781 783 785 788 790 792 795 797 799 801 803 804 806 808 809 811 812 814 815 816 818 819 820 822 823 824 825 826 827 828 829 830 832 833 834 836 837 838 839 840 841 842 843 843 844 844 845 845 846 846 846 846 847
751 744 757 770 766 772 788 792 789 787 789 787 781 783 784 775 763 752 750 751 749 750 751 751 753 753 754 758 758 758 758 757 757 759 759 760 760 762 765 767 769 772 774 777 779 781 783 785 788 790 792 795 797 799 801 803 805 807 808 810 811 813 814 815 817 818 819 821 822 823 824 825 826 826 828 829 831 832 833 834 836 837 838 839 840 840 841 842 842 843 844 844 845 845 845 845 845
753 753 761 757 746 754 777 788 780 782 800 794 781 788 784 773 770 759 755 757 754 754 754 753 754 754 756 759 757 757 756 755 756 757 758 758 759 761 763 765 768 770 772 774 776 778 780 782 786 789 791 793 795 797 799 801 804 806 807 809 810 812 813 814 815 817 818 819 821 822 823 824 824 825 826 828 829 831 832 833 835 836 836 837 838 839 839 840 841 842 842 843 843 844 844 844 844
753 760 752 744 746 752 767 787 790 795 808 794 782 793 792 788 786 770 761 764 761 757 755 753 755 755 756 756 756 756 754 753 754 754 755 756 757 760 762 763 766 767 769 771 772 775 778 780 784 787 789 790 793 795 797 800 802 804 806 807 809 810 811 813 814 815 817 818 819 821 822 823 823 824 825 826 828 829 831 832 833 834 835 835 836 837 838 838 839 840 840 841 842 842 843 843 843
738 745 738 745 768 773 771 785 796 802 808 799 793 797 793 790 784 772 770 769 762 760 758 756 757 755 755 754 754 754 753 753 754 754 756 756 756 759 760 762 765 767 769 771 773 776 778 780 782 785 786 787 790 793 795 798 800 802 805 806 808 809 810 812 813 814 816 817 818 819 821 822 823 824 824 825 826 828 829 830 831 833 833 834 834 835 836 837 837 838 839 839 840 841 841 841 841
732 738 738 745 761 769 771 775 781 791 800 803 805 804 793 781 770 766 768 764 760 762 760 759 758 754 754 753 752 753 753 753 755 756 757 757 757 758 759 763 766 768 772 776 780 783 785 786 788 790 790 789 790 792 793 796 799 801 803 805 807 808 809 811 812 813 814 815 817 818 819 821 822 823 824 824 825 826 827 829 830 831 832 832 833 833 834 835 835 836 837 837 838 839 839 839 840
745 751 754 753 753 757 764 766 765 773 786 796 807 809 791 767 756 758 760 758 758 759 758 759 757 754 752 750 751 753 752 753 754 755 757 757 757 759 760 764 766 768 771 775 779 784 786 789 790 793 796 795 792 791 792 795 798 800 802 804 806 807 808 810 811 812 813 814 815 816 818 820 821 822 823 823 824 825 826 827 828 829 830 830 831 831 832 833 833 834 835 835 836 837 837 838 838
741 748 751 753 753 758 773 778 765 760 772 783 796 806 788 757 749 752 752 754 755 754 756 758 756 754 752 749 751 753 753 753 754 755 756 757 757 759 762 764 765 767 769 771 773 776 779 783 786 790 797 801 798 794 793 795 796 799 801 802 804 806 807 809 809 810 811 812 813 814 816 817 819 820 821 822 823 824 825 826 826 827 828 828 829 829 830 830 831 832 832 833 834 834 835 835 836